Wind_Speed
14 14 13 10 7 12 9 14 17 19 20 24 28 6 23 27 31 16 8 7 26 29 34 37 39 37 36 37 37 34 32 30 29 26 22 21 23 26 30 30 28 27 25 26
10 16 11 11 10 21 7 21 10 22 26 26 30 17 25 22 30 14 30 30 29 32 32 31 36 36 38 38 36 35 36 35 29 27 23 22 24 27 29 25 26 27 27 24
2 6 3 12 15 13 17 17 16 22 23 23 20 13 14 21 26 12 27 25 29 26 27 26 30 37 33 36 35 34 36 36 29 24 23 24 27 30 29 29 27 25 20 20
10 7 13 2 6 22 16 16 19 23 22 12 12 19 20 16 13 11 30 35 29 26 30 30 32 35 35 36 37 36 33 29 24 23 23 25 27 29 30 29 25 21 22 19
10 9 7 13 9 15 24 17 16 16 9 6 19 20 14 32 5 8 16 26 33 34 32 35 35 37 39 37 34 33 34 31 25 23 23 24 26 27 30 28 25 21 23 23
7 9 9 11 12 14 18 15 16 16 23 31 23 21 22 23 28 39 39 15 32 37 35 35 38 41 40 38 36 36 33 29 26 24 25 25 24 27 26 24 22 20 18 20
13 15 5 7 15 9 13 20 22 17 20 20 20 15 20 21 30 27 32 31 28 34 36 39 44 43 42 37 37 37 33 29 25 23 20 19 21 25 25 24 24 21 17 18
13 14 10 4 9 11 14 17 23 12 15 20 20 12 18 18 20 16 25 29 35 43 44 42 45 43 39 38 38 36 32 31 25 22 14 15 19 22 21 25 23 20 16 19
4 9 4 10 8 17 19 16 27 25 24 26 26 10 13 21 33 15 32 39 41 45 44 43 44 41 38 41 41 37 35 33 31 29 7 13 21 18 20 18 17 19 20 21
9 11 11 7 8 14 20 17 17 15 13 12 17 27 28 26 26 19 27 35 38 41 44 43 41 41 42 36 36 33 33 28 28 28 25 24 23 17 20 20 18 19 19 21
14 9 16 17 11 8 13 14 7 9 12 12 16 23 24 19 23 11 36 36 38 42 45 51 32 41 46 40 35 33 34 34 27 25 28 31 21 25 20 21 21 19 21 23
11 8 14 22 15 12 14 14 21 15 13 8 15 20 13 22 31 37 39 38 40 43 45 47 42 46 41 43 40 37 35 34 34 31 30 28 28 23 22 21 19 19 21 22
8 7 4 9 3 8 8 7 11 17 9 6 16 21 33 35 39 40 42 41 44 45 46 46 51 50 37 36 39 36 35 31 31 28 29 28 28 25 25 22 20 21 22 21
9 8 7 7 1 2 3 4 8 12 10 5 18 24 27 30 31 32 36 41 43 45 47 49 52 56 49 38 36 32 33 33 31 34 24 23 24 23 24 24 23 21 22 22
10 11 12 10 11 3 5 4 11 8 9 12 12 23 23 25 28 31 33 40 44 46 48 50 55 57 53 45 38 33 30 28 31 34 26 23 24 26 26 24 21 22 23 22
20 14 16 15 15 10 12 16 7 16 12 9 18 24 24 24 27 29 32 39 43 45 45 46 52 53 51 48 42 39 25 28 24 28 29 28 28 28 29 26 21 21 22 22
11 12 15 12 9 15 18 16 14 20 15 14 17 21 24 25 31 34 38 43 45 45 44 46 47 47 48 49 44 33 32 31 28 26 32 29 31 46 29 26 22 21 23 22
18 21 25 10 12 14 14 8 4 8 8 13 19 23 24 27 32 37 41 45 49 48 48 50 49 50 51 40 40 45 34 34 30 29 31 24 38 41 21 22 21 22 23 23
17 11 15 10 12 14 16 17 11 20 11 19 21 23 27 31 34 37 39 43 47 47 48 51 52 39 31 36 47 38 37 14 23 54 24 36 37 38 22 24 26 22 20 22
20 10 10 11 10 15 14 14 18 26 21 22 25 28 31 34 37 40 41 44 48 48 45 47 44 40 38 37 36 17 37 35 37 35 25 40 38 43 44 34 19 18 19 22
8 13 12 13 13 20 19 19 21 19 24 28 30 33 36 39 42 44 44 47 52 50 45 48 42 39 43 40 35 33 37 40 34 34 41 35 38 46 42 30 15 16 20 23
19 16 12 19 18 21 23 21 22 25 25 30 34 36 39 41 42 45 47 50 54 51 46 46 43 38 39 40 37 37 40 38 34 38 42 34 30 24 17 17 16 21 23 24
20 18 21 22 25 27 28 25 24 23 24 31 35 38 41 42 44 46 51 56 54 47 46 44 43 23 38 36 37 38 40 35 34 37 35 34 31 20 11 16 21 22 23 25
25 28 25 24 25 30 30 30 30 28 31 33 36 40 42 43 46 51 55 54 49 43 41 39 38 37 38 38 38 37 39 31 32 31 28 29 18 21 21 23 23 25 27 29
33 29 28 30 27 29 26 31 33 35 37 40 41 42 43 42 50 54 55 50 44 42 38 36 37 37 38 35 34 35 36 34 33 34 26 22 26 24 29 31 32 32 31 32
29 28 32 32 30 28 31 35 37 39 39 41 40 42 44 46 52 55 52 45 41 38 35 34 34 33 34 33 33 34 34 32 33 33 29 28 28 29 30 31 31 33 34 34
Wind_Direction
63 36 9 345 29 317 341 349 345 328 345 337 322 42 338 342 338 17 320 201 22 358 356 350 358 355 353 349 348 346 344 336 330 323 321 327 330 328 327 326 325 323 328 332
74 71 348 326 359 332 331 348 336 321 312 307 296 326 345 353 346 44 15 12 20 352 346 346 352 351 351 347 343 343 350 341 330 324 323 325 328 325 324 327 331 331 333 337
84 343 97 320 14 312 324 319 332 319 332 304 304 343 341 359 346 14 27 20 18 1 352 356 355 350 343 351 351 348 343 340 333 324 319 323 327 325 330 335 331 325 328 334
177 237 208 240 328 304 310 271 288 319 312 316 309 335 8 0 17 58 29 20 10 13 359 353 353 354 352 348 348 341 337 331 322 315 313 321 326 328 329 326 327 333 333 335
221 211 245 215 278 273 290 314 330 341 12 352 359 357 333 336 329 136 50 9 356 358 4 352 353 351 353 352 348 341 333 326 314 310 313 320 327 327 330 331 330 333 335 337
249 249 293 274 263 293 293 309 329 316 317 353 17 343 335 337 331 338 321 330 350 348 355 353 350 350 352 350 347 344 340 332 319 320 320 325 330 328 330 331 327 329 334 330
242 226 224 5 311 314 299 307 316 317 345 355 325 314 309 334 335 358 356 9 349 344 354 350 346 350 347 348 348 346 343 337 322 311 313 329 327 329 328 327 328 331 336 330
278 195 201 33 352 322 282 290 284 339 314 309 314 345 334 341 342 335 350 1 356 351 350 349 345 348 348 348 348 346 351 350 318 302 320 324 331 330 332 328 328 327 330 332
268 177 108 15 263 250 251 269 294 307 309 312 310 1 349 342 325 25 359 0 349 346 343 346 343 345 354 348 345 348 349 351 331 335 292 324 312 327 330 330 329 326 329 336
287 287 192 210 256 272 264 259 288 299 336 325 325 337 330 324 337 345 354 357 348 339 338 343 347 350 347 347 344 342 341 344 352 343 336 323 308 336 346 343 336 331 329 333
275 263 194 221 252 255 266 282 325 328 322 325 330 315 321 351 19 319 354 347 342 341 341 343 350 350 340 344 345 341 340 340 342 346 336 327 323 358 348 336 331 328 330 332
261 249 214 242 259 273 272 313 312 302 327 354 323 314 334 340 344 347 348 343 338 344 342 347 340 340 340 339 345 340 337 340 334 343 341 336 334 342 342 328 328 327 328 328
260 267 260 229 62 326 248 355 336 351 348 336 309 332 329 343 340 339 340 336 336 343 338 339 338 336 346 344 341 337 334 334 330 332 331 330 336 334 331 328 327 328 327 323
240 249 266 283 21 22 112 43 327 326 320 300 321 323 326 333 333 332 332 333 335 335 337 338 332 338 345 342 335 333 329 331 332 335 327 322 321 326 322 325 326 325 319 318
249 258 261 254 250 233 163 251 214 244 293 279 296 310 321 329 334 338 336 336 335 335 334 334 333 334 334 334 333 336 329 328 329 325 323 326 321 323 324 322 319 312 310 313
262 254 270 277 251 224 205 244 228 263 292 280 300 312 324 328 326 328 335 338 336 332 331 330 326 325 327 327 331 334 312 326 322 322 334 328 327 326 320 311 311 311 311 312
247 290 298 290 215 233 231 240 278 265 288 296 311 318 323 328 322 329 336 340 341 334 332 329 324 319 326 325 325 324 315 321 315 316 317 322 333 336 312 313 310 316 303 308
288 302 300 270 248 239 242 296 14 206 256 305 321 317 322 325 326 330 333 337 341 337 331 328 325 325 325 316 326 326 303 312 302 314 314 334 338 337 318 306 299 301 307 313
285 261 270 261 247 267 265 255 282 279 324 313 310 319 322 324 324 325 327 329 333 335 327 326 325 331 354 341 343 333 336 329 293 308 275 341 334 332 311 286 291 303 306 312
255 258 246 249 259 277 282 299 319 324 323 317 318 319 320 320 321 323 322 324 330 333 327 325 327 329 329 338 339 333 337 320 320 268 360 335 329 327 315 292 283 308 313 313
241 253 238 245 257 265 286 304 303 300 310 315 314 317 318 320 322 321 321 327 330 332 327 323 324 328 329 336 330 331 329 328 327 320 323 322 318 320 311 295 316 305 310 311
275 284 274 262 254 265 277 292 289 301 312 310 312 316 315 317 317 317 320 326 327 327 324 322 321 325 330 330 330 335 334 332 325 323 325 326 325 318 334 316 306 310 312 311
266 255 267 273 272 274 279 285 289 308 309 302 307 309 311 315 316 318 321 323 325 323 323 322 328 349 332 330 331 334 334 328 328 326 324 334 344 352 334 312 305 305 305 310
259 259 254 257 265 273 284 298 308 308 301 301 305 309 314 317 318 319 321 323 323 323 323 321 325 328 329 333 331 327 332 331 329 328 335 334 329 320 313 307 306 306 310 310
270 275 263 269 268 279 297 297 295 300 306 311 312 313 314 316 317 320 321 323 322 323 321 321 323 325 329 332 332 330 334 333 323 330 330 329 320 314 310 310 312 314 314 312
268 277 267 279 281 288 290 292 297 299 303 303 310 311 311 314 316 318 319 320 321 319 317 320 321 323 327 329 329 330 329 328 325 324 311 313 316 314 312 313 314 314 311 312
Height
5957 5957 5958 5961 5960 5961 5960 5956 5952 5941 5938 5935 5936 5922 5928 5925 5921 5920 5915 5897 5909 5913 5905 5899 5896 5894 5892 5889 5884 5880 5875 5869 5865 5860 5855 5851 5848 5844 5840 5835 5831 5827 5823 5818
5955 5956 5961 5961 5960 5959 5957 5954 5952 5944 5943 5941 5935 5926 5931 5925 5919 5922 5913 5909 5909 5911 5907 5900 5896 5892 5888 5884 5880 5875 5870 5864 5860 5856 5852 5849 5845 5840 5837 5832 5827 5823 5818 5814
5951 5955 5956 5960 5959 5958 5952 5951 5949 5944 5942 5936 5933 5928 5926 5923 5920 5919 5916 5915 5914 5916 5908 5902 5898 5893 5888 5883 5877 5872 5866 5861 5856 5852 5849 5845 5841 5836 5831 5826 5823 5820 5816 5812
5949 5950 5951 5952 5956 5953 5953 5950 5947 5946 5940 5937 5929 5923 5922 5919 5917 5914 5913 5911 5915 5914 5906 5903 5897 5892 5887 5880 5874 5869 5863 5857 5851 5846 5843 5840 5835 5831 5828 5825 5821 5815 5811 5808
5951 5949 5950 5951 5952 5952 5949 5947 5946 5944 5938 5932 5926 5923 5918 5916 5916 5912 5908 5910 5912 5910 5906 5900 5896 5890 5883 5877 5871 5865 5858 5852 5846 5842 5838 5834 5830 5827 5823 5819 5815 5811 5807 5804
5951 5951 5951 5950 5948 5949 5948 5946 5945 5941 5935 5929 5927 5924 5923 5919 5917 5906 5904 5908 5908 5906 5904 5898 5893 5887 5880 5874 5867 5861 5853 5847 5842 5840 5836 5831 5826 5822 5819 5816 5813 5810 5806 5803
5946 5947 5948 5948 5948 5947 5946 5943 5940 5939 5933 5934 5927 5924 5922 5920 5915 5914 5914 5911 5910 5906 5902 5896 5888 5884 5876 5871 5864 5856 5847 5842 5838 5833 5829 5827 5824 5819 5814 5811 5808 5805 5803 5801
5943 5946 5944 5946 5944 5945 5944 5941 5938 5937 5933 5931 5931 5925 5920 5917 5915 5913 5911 5909 5905 5898 5894 5894 5883 5879 5873 5865 5859 5851 5844 5839 5832 5828 5824 5822 5820 5817 5812 5807 5805 5802 5799 5797
5941 5940 5942 5942 5943 5941 5940 5938 5937 5936 5933 5931 5926 5921 5922 5916 5904 5895 5900 5898 5897 5896 5894 5890 5882 5874 5868 5860 5855 5848 5842 5834 5827 5823 5820 5822 5818 5812 5809 5804 5801 5799 5796 5793
5937 5937 5940 5937 5938 5940 5937 5938 5936 5937 5932 5930 5923 5919 5922 5921 5919 5903 5904 5904 5902 5898 5891 5888 5881 5872 5867 5862 5853 5847 5841 5837 5828 5820 5820 5816 5814 5810 5802 5800 5797 5795 5792 5789
5936 5936 5938 5936 5936 5936 5934 5934 5931 5933 5930 5928 5926 5923 5919 5916 5915 5912 5908 5905 5900 5895 5888 5879 5875 5872 5861 5856 5850 5843 5837 5830 5827 5822 5816 5809 5799 5802 5798 5798 5795 5791 5788 5785
5934 5933 5934 5934 5936 5936 5930 5932 5931 5930 5928 5928 5925 5923 5919 5912 5908 5903 5902 5901 5896 5891 5884 5877 5871 5870 5862 5849 5843 5838 5832 5826 5818 5815 5811 5805 5800 5798 5795 5795 5791 5789 5785 5782
5933 5933 5934 5935 5936 5932 5933 5933 5930 5928 5927 5926 5923 5918 5912 5907 5903 5902 5897 5896 5891 5887 5879 5875 5865 5863 5860 5850 5841 5834 5827 5824 5818 5814 5807 5801 5797 5795 5793 5790 5787 5783 5780 5779
5931 5931 5931 5931 5930 5931 5933 5933 5928 5930 5929 5926 5920 5917 5912 5908 5907 5907 5902 5895 5890 5884 5877 5869 5863 5853 5847 5845 5840 5833 5825 5818 5813 5810 5806 5801 5796 5793 5791 5785 5781 5778 5777 5775
5929 5928 5928 5929 5926 5929 5927 5927 5930 5927 5926 5922 5919 5918 5915 5914 5910 5906 5901 5894 5887 5879 5871 5864 5854 5846 5841 5837 5834 5828 5823 5816 5810 5804 5800 5797 5792 5788 5784 5781 5778 5775 5773 5770
5924 5924 5923 5925 5925 5925 5925 5922 5923 5922 5912 5922 5920 5915 5913 5910 5906 5903 5899 5893 5885 5876 5870 5862 5852 5843 5837 5831 5828 5820 5809 5813 5808 5802 5796 5793 5788 5786 5783 5778 5774 5770 5766 5763
5920 5921 5920 5921 5921 5922 5920 5921 5923 5921 5918 5917 5915 5912 5910 5907 5900 5896 5892 5886 5881 5873 5866 5859 5850 5840 5832 5824 5820 5812 5807 5805 5799 5796 5793 5790 5785 5779 5772 5772 5767 5765 5762 5758
5915 5914 5915 5916 5916 5917 5919 5919 5916 5914 5915 5913 5912 5909 5907 5903 5896 5891 5885 5879 5873 5866 5858 5850 5841 5834 5826 5817 5818 5802 5783 5792 5791 5787 5783 5780 5776 5769 5766 5765 5761 5760 5754 5751
5909 5911 5911 5912 5912 5912 5911 5910 5912 5908 5910 5910 5909 5906 5902 5897 5893 5888 5883 5877 5870 5863 5853 5842 5831 5826 5813 5812 5811 5802 5794 5773 5783 5776 5773 5768 5768 5763 5759 5758 5753 5750 5748 5745
5908 5907 5908 5908 5908 5904 5907 5906 5905 5900 5901 5903 5903 5899 5895 5891 5887 5883 5877 5872 5864 5856 5848 5838 5827 5819 5816 5811 5808 5795 5792 5787 5778 5761 5765 5765 5762 5758 5752 5748 5745 5744 5742 5738
5905 5905 5906 5907 5906 5902 5902 5905 5905 5903 5901 5897 5894 5892 5888 5884 5880 5874 5868 5862 5855 5848 5840 5829 5824 5817 5811 5805 5800 5794 5788 5782 5776 5772 5768 5764 5758 5752 5745 5741 5741 5740 5735 5731
5903 5903 5905 5903 5902 5902 5902 5903 5903 5901 5896 5892 5889 5886 5882 5879 5874 5867 5861 5856 5848 5840 5832 5825 5821 5816 5810 5801 5794 5788 5783 5776 5770 5765 5758 5753 5747 5741 5737 5737 5736 5733 5728 5725
5900 5900 5899 5897 5896 5896 5896 5899 5900 5897 5892 5886 5883 5880 5876 5872 5866 5859 5853 5847 5840 5833 5825 5817 5813 5805 5804 5797 5788 5781 5777 5771 5765 5758 5751 5745 5738 5736 5737 5736 5732 5727 5723 5717
5891 5891 5891 5889 5887 5886 5887 5889 5888 5886 5884 5882 5879 5873 5868 5864 5856 5851 5845 5839 5832 5826 5820 5813 5808 5800 5796 5789 5782 5777 5773 5766 5761 5756 5749 5745 5742 5738 5735 5731 5727 5721 5715 5710
5883 5886 5882 5886 5884 5886 5881 5880 5879 5877 5875 5871 5868 5865 5861 5857 5848 5842 5836 5831 5824 5818 5813 5808 5802 5796 5790 5785 5779 5773 5767 5762 5757 5753 5747 5743 5739 5735 5730 5726 5720 5714 5708 5704
5874 5874 5866 5875 5881 5882 5878 5874 5871 5870 5870 5865 5863 5857 5852 5848 5841 5834 5827 5822 5818 5812 5807 5802 5797 5791 5786 5781 5776 5770 5765 5759 5753 5749 5744 5739 5735 5730 5726 5720 5714 5708 5702 5696